1505188800.42,4151,16.38,73100.3,5.93,5.27,5.33,0,*46
1505188801.61,4152,16.38,73100.0,5.95,5.29,5.27,0,*48
1505188802.79,4153,16.38,73098.5,5.95,5.37,5.29,0,*48
1505188804.02,4154,16.38,73094.5,5.93,5.27,5.23,0,*42
1505188805.21,4155,16.38,73106.3,5.95,5.27,5.29,0,*4F
1505188806.45,4156,16.38,73098.8,5.93,5.23,5.27,0,*40
1505188807.66,4157,16.38,73102.0,5.93,5.23,5.23,0,*45
1505188808.88,4158,16.38,73102.5,5.95,5.27,5.27,0,*4C
1505188810.08,4159,16.38,73098.0,5.95,5.27,5.29,0,*43
1505188811.3,4160,16.38,73098.8,5.95,5.27,5.27,0,*47
1505188812.51,4161,16.38,73098.0,5.93,5.23,5.23,0,*40
1505188813.73,4162,16.38,73096.0,5.93,5.23,5.23,0,*43
1505188814.95,4163,16.38,73094.5,5.95,5.27,5.27,0,*44
1505188816.17,4164,16.38,73096.8,5.95,5.27,5.27,0,*43
1505188817.39,4165,16.38,73102.3,5.93,5.23,5.23,0,*44
1505188818.61,4166,16.38,73100.3,5.95,5.27,5.27,0,*41
1505188819.83,4167,16.38,73102.5,5.95,5.27,5.27,0,*40
1505188821.05,4168,16.38,73102.3,5.95,5.27,5.27,0,*4F
1505188822.3,4169,16.38,73098.5,5.97,5.27,5.27,0,*4C
1505188823.51,4170,16.38,73096.3,5.93,5.23,5.23,0,*40
1505188824.73,4171,16.38,73098.0,5.95,5.27,5.27,0,*47
1505188825.95,4172,16.38,73094.8,5.93,5.23,5.23,0,*42
1505188827.16,4173,16.38,73096.0,5.93,5.23,5.23,0,*43
1505188828.38,4174,16.38,73096.3,5.93,5.23,5.23,0,*44
1505188829.6,4175,16.38,73098.3,5.95,5.27,5.27,0,*43
1505188830.8,4176,16.38,73098.8,5.95,5.27,5.29,0,*4E
1505188832.02,4177,16.38,73096.8,5.95,5.27,5.27,0,*41
1505188833.25,4178,16.38,73102.8,5.93,5.23,5.27,0,*4C
1505188834.47,4179,16.38,73100.3,5.95,5.27,5.27,0,*4F
1505188835.69,4180,16.38,73094.3,5.93,5.23,5.23,0,*4F
1505188836.93,4181,16.38,73092.3,5.93,5.27,5.27,0,*4E
1505188838.15,4182,16.38,73096.3,5.95,5.27,5.27,0,*4B
1505188839.35,4183,16.38,73100.3,5.95,5.29,5.27,0,*44
1505188840.58,4184,16.38,73098.0,5.95,5.27,5.27,0,*4D
1505188841.81,4185,16.38,73092.3,5.93,5.27,5.23,0,*4E
1505188843.04,4186,16.38,73092.5,5.93,5.33,5.27,0,*4C
1505188844.27,4187,16.38,73096.0,5.93,5.27,5.23,0,*4C
1505188845.49,4188,16.38,73098.3,5.95,5.27,5.27,0,*41
1505188846.71,4189,16.38,73100.3,5.93,5.23,5.23,0,*46
1505188847.94,4190,16.38,73098.3,5.93,5.23,5.27,0,*4A
1505188849.17,4191,16.38,73106.0,5.93,5.23,5.27,0,*4B
1505188850.42,4192,16.38,73104.8,5.93,5.27,5.27,0,*4C
1505188851.65,4193,16.38,73106.0,5.93,5.27,5.23,0,*49
1505188852.86,4194,16.38,73104.8,5.93,5.23,5.23,0,*4A
1505188854.08,4195,16.38,73098.3,5.93,5.23,5.23,0,*4B
1505188855.29,4196,16.38,73094.3,5.93,5.23,5.23,0,*48
1505188856.51,4197,16.38,73092.0,5.93,5.23,5.23,0,*49
1505188857.74,4198,16.38,73092.3,5.93,5.27,5.23,0,*42
1505188858.95,4199,16.38,73092.0,5.93,5.23,5.23,0,*47
1505188860.17,4200,16.38,73096.8,5.93,5.23,5.23,0,*44
1505188861.38,4201,16.38,73102.0,5.93,5.23,5.23,0,*45
1505188862.6,4202,16.38,73096.8,5.93,5.23,5.23,0,*46
1505188863.83,4203,16.38,73096.5,5.93,5.23,5.27,0,*43
1505188865.0,4204,16.38,73098.8,5.95,5.29,5.29,0,*46
1505188866.23,4205,16.38,73100.3,5.93,5.23,5.27,0,*45
1505188867.43,4206,16.38,73096.0,5.95,5.27,5.29,0,*4A
1505188868.65,4207,16.38,73100.8,5.95,5.27,5.27,0,*45
1505188869.88,4208,16.38,73098.3,5.93,5.33,5.27,0,*49
1505188871.12,4209,16.38,73100.5,5.93,5.27,5.27,0,*4D
1505188872.37,4210,16.38,73094.5,5.93,5.27,5.27,0,*45
1505188873.6,4211,16.38,73094.0,5.93,5.27,5.23,0,*40
1505188874.8,4212,16.38,73088.3,5.95,5.27,5.29,0,*4F
1505188876.03,4213,16.38,73094.8,5.93,5.27,5.23,0,*42
1505188877.26,4214,16.38,73096.3,5.93,5.27,5.23,0,*45
1505188878.51,4215,16.38,73096.0,5.93,5.27,5.27,0,*40
1505188879.73,4216,16.38,73096.5,5.93,5.27,5.33,0,*46
1505188880.96,4217,16.38,73096.0,5.91,5.27,5.27,0,*40
1505188882.16,4218,16.38,73092.5,5.93,5.37,5.33,0,*49
1505188883.41,4219,16.38,73092.0,5.93,5.27,5.27,0,*4C
1505188884.64,4220,16.38,73092.5,5.93,5.23,5.27,0,*42
1505188885.86,4221,16.38,73092.0,5.93,5.27,5.33,0,*42
1505188887.04,4222,16.31,73090.5,5.95,5.37,5.37,0,*42
1505188888.26,4223,16.38,73094.8,5.93,5.27,5.33,0,*40
1505188889.44,4224,16.38,73094.3,5.95,5.29,5.37,0,*4B
1505188890.63,4225,16.38,73096.0,5.95,5.27,5.37,0,*44
1505188891.85,4226,16.38,73098.0,5.93,5.27,5.33,0,*45
1505188893.1,4227,16.38,73100.0,5.93,5.27,5.27,0,*41
1505188894.3,4228,16.38,73092.8,5.95,5.27,5.29,0,*46
1505188895.53,4229,16.38,73098.0,5.93,5.33,5.27,0,*4A
1505188896.74,4230,16.38,73102.3,5.93,5.23,5.23,0,*47
1505188897.91,4231,16.38,73100.3,5.95,5.29,5.29,0,*40
1505188899.09,4232,16.38,73096.3,5.95,5.41,5.37,0,*42
1505188900.32,4233,16.31,73096.3,5.93,5.27,5.33,0,*41
1505188901.49,4234,16.38,73098.5,5.95,5.37,5.37,0,*45
1505188902.72,4235,16.38,73096.5,5.93,5.33,5.27,0,*47
1505188903.92,4236,16.38,73102.3,5.95,5.29,5.27,0,*49
1505188905.15,4237,16.31,73098.0,5.93,5.27,5.23,0,*44
1505188906.37,4238,16.38,73100.8,5.95,5.27,5.27,0,*49
1505188907.6,4239,16.31,73102.0,5.93,5.23,5.27,0,*4A
1505188908.8,4240,16.38,73102.3,5.95,5.27,5.29,0,*48
1505188910.03,4241,16.38,73098.8,5.93,5.27,5.23,0,*45
1505188911.23,4242,16.38,73098.5,5.95,5.29,5.27,0,*4A
1505188912.43,4243,16.31,73096.3,5.95,5.29,5.27,0,*4B
1505188913.64,4244,16.38,73096.8,5.93,5.23,5.23,0,*44
1505188914.83,4245,16.38,73102.0,5.95,5.23,5.23,0,*43
1505188916.03,4246,16.38,73102.8,5.95,5.27,5.37,0,*41
1505188917.26,4247,16.31,73100.3,5.93,5.23,5.27,0,*43
1505188918.49,4248,16.38,73100.5,5.93,5.33,5.27,0,*4D
1505188919.74,4249,16.38,73098.3,5.93,5.27,5.27,0,*49
1505188920.98,4250,16.38,73096.8,5.93,5.27,5.27,0,*41
1505188922.21,4251,16.38,73098.0,5.95,5.27,5.27,0,*46
1505188923.41,4252,16.38,73102.3,5.91,5.23,5.27,0,*45
1505188924.66,4253,16.31,73100.0,5.93,5.27,5.27,0,*42
1505188925.88,4254,16.38,73102.3,5.95,5.27,5.27,0,*43
1505188927.1,4255,16.38,73098.8,5.95,5.27,5.27,0,*42
1505188928.33,4256,16.38,73100.0,5.93,5.23,5.27,0,*43
1505188929.55,4257,16.38,73100.0,5.93,5.23,5.23,0,*46
1505188930.76,4258,16.38,73102.3,5.93,5.23,5.23,0,*49
1505188931.98,4259,16.38,73102.0,5.93,5.23,5.23,0,*48
1505188933.19,4260,16.38,73102.5,5.93,5.23,5.23,0,*42
1505188934.41,4261,16.38,73098.3,5.93,5.23,5.23,0,*43
1505188935.62,4262,16.38,73100.3,5.93,5.23,5.23,0,*40
1505188936.84,4263,16.38,73102.5,5.93,5.23,5.23,0,*41
1505188938.05,4264,16.31,73100.5,5.93,5.23,5.23,0,*46
1505188939.27,4265,16.38,73102.5,5.95,5.27,5.27,0,*41
1505188940.49,4266,16.38,73098.5,5.93,5.23,5.23,0,*44
1505188941.7,4267,16.38,73098.8,5.93,5.23,5.23,0,*45
1505188942.93,4268,16.38,73098.0,5.93,5.23,5.27,0,*4E
1505188944.15,4269,16.38,73104.3,5.93,5.23,5.23,0,*4B
1505188945.38,4270,16.38,73102.3,5.93,5.23,5.27,0,*47
1505188946.61,4271,16.38,73096.5,5.93,5.23,5.27,0,*46
1505188947.83,4272,16.38,73096.3,5.93,5.23,5.23,0,*41
1505188949.06,4273,16.31,73100.5,5.93,5.23,5.27,0,*44
1505188950.29,4274,16.38,73098.3,5.93,5.27,5.23,0,*43
1505188951.48,4275,16.38,73100.8,5.95,5.27,5.29,0,*4E
1505188952.7,4276,16.38,73098.0,5.93,5.23,5.23,0,*45
1505188953.91,4277,16.38,73098.3,5.93,5.23,5.23,0,*44
1505188955.16,4278,16.38,73094.8,5.93,5.27,5.27,0,*4B
1505188956.39,4279,16.31,73092.3,5.93,5.23,5.27,0,*4E
1505188957.62,4280,16.38,73096.3,5.93,5.23,5.27,0,*48
1505188958.86,4281,16.38,73094.5,5.93,5.27,5.23,0,*49
1505188960.09,4282,16.31,73092.3,5.93,5.23,5.27,0,*4A
1505188961.28,4283,16.31,73094.5,5.95,5.29,5.27,0,*47
1505188962.51,4284,16.31,73092.5,5.95,5.27,5.27,0,*4E
1505188963.74,4285,16.31,73088.3,5.93,5.27,5.23,0,*4D
1505188964.97,4286,16.38,73090.0,5.93,5.23,5.27,0,*4E
1505188966.2,4287,16.38,73098.0,5.93,5.23,5.27,0,*4F
1505188967.43,4288,16.38,73094.0,5.93,5.27,5.23,0,*40
1505188968.68,4289,16.38,73094.3,5.93,5.27,5.27,0,*45
1505188969.93,4290,16.38,73102.5,5.93,5.27,5.27,0,*4D
1505188971.18,4291,16.38,73096.8,5.93,5.27,5.27,0,*4C
1505188972.42,4292,16.31,73092.3,5.93,5.27,5.27,0,*4F
1505188973.64,4293,16.38,73098.5,5.93,5.23,5.23,0,*4E
1505188974.87,4294,16.38,73098.0,5.93,5.23,5.27,0,*4D
1505188976.12,4295,16.38,73098.3,5.93,5.27,5.27,0,*48
1505188977.35,4296,16.38,73102.3,5.93,5.23,5.27,0,*4F
1505188978.6,4297,16.38,73100.3,5.93,5.27,5.27,0,*4A
1505188979.84,4298,16.31,73096.8,5.93,5.27,5.27,0,*45
1505188981.08,4299,16.38,73098.8,5.93,5.23,5.27,0,*40
1505188982.29,4300,16.31,73094.3,5.93,5.23,5.23,0,*45
1505188983.5,4301,16.38,73098.0,5.93,5.23,5.23,0,*44
1505188984.73,4302,16.31,73094.8,5.95,5.27,5.27,0,*41
1505188985.94,4303,16.38,73100.8,5.93,5.23,5.23,0,*46
1505188987.17,4304,16.38,73102.5,5.93,5.27,5.23,0,*45
1505188988.39,4305,16.31,73096.5,5.93,5.23,5.23,0,*40
1505188989.6,4306,16.38,73100.8,5.93,5.23,5.23,0,*43
1505188990.82,4307,16.38,73104.8,5.93,5.23,5.23,0,*42
1505188992.03,4308,16.38,73100.0,5.93,5.23,5.23,0,*4D
1505188993.25,4309,16.31,73098.0,5.93,5.23,5.23,0,*4C
1505188994.48,4310,16.38,73102.8,5.93,5.27,5.23,0,*40
1505188995.71,4311,16.38,73104.8,5.93,5.27,5.23,0,*41
1505188996.92,4312,16.38,73100.5,5.93,5.23,5.23,0,*46
1505188998.14,4313,16.38,73096.8,5.93,5.23,5.23,0,*47
1505188999.37,4314,16.38,73098.0,5.93,5.23,5.27,0,*44
1505189000.59,4315,16.31,73102.5,5.95,5.27,5.27,0,*47
1505189001.8,4316,16.38,73098.5,5.95,5.27,5.23,0,*40
1505189003.03,4317,16.31,73096.8,5.93,5.23,5.27,0,*47
1505189004.26,4318,16.38,73096.3,5.93,5.27,5.23,0,*48
1505189005.43,4319,16.38,73096.3,5.95,5.29,5.29,0,*4B
1505189006.68,4320,16.38,73100.5,5.93,5.27,5.27,0,*47
1505189007.91,4321,16.38,73098.5,5.93,5.23,5.27,0,*42
1505189009.13,4322,16.38,73102.0,5.91,5.27,5.27,0,*47
1505189010.36,4323,16.31,73098.5,5.93,5.23,5.27,0,*40
1505189011.61,4324,16.38,73098.0,5.93,5.27,5.27,0,*43
1505189012.84,4325,16.38,73096.3,5.93,5.23,5.27,0,*46
1505189014.07,4326,16.38,73102.3,5.93,5.33,5.27,0,*44
1505189015.25,4327,16.38,73102.0,5.95,5.37,5.37,0,*46
1505189016.45,4328,16.38,73102.8,5.93,5.33,5.33,0,*4F
1505189017.64,4329,16.38,73102.3,5.95,5.33,5.33,0,*48
1505189018.86,4330,16.31,73094.0,5.93,5.27,5.33,0,*43
1505189020.07,4331,16.38,73092.5,5.93,5.33,5.33,0,*47
1505189021.28,4332,16.38,73096.8,5.93,5.33,5.33,0,*44
1505189022.48,4333,16.31,73094.3,5.93,5.33,5.33,0,*45
1505189023.71,4334,16.38,73096.5,5.93,5.27,5.33,0,*47
1505189024.96,4335,16.38,73092.8,5.93,5.27,5.27,0,*43
1505189026.16,4336,16.38,73096.0,5.93,5.33,5.37,0,*44
1505189027.33,4337,16.31,73098.8,5.95,5.37,5.41,0,*46
1505189028.54,4338,16.31,73098.3,5.93,5.33,5.33,0,*4E
1505189029.72,4339,16.38,73100.0,5.95,5.41,5.41,0,*49
1505189030.92,4340,16.38,73096.3,5.93,5.33,5.37,0,*45
1505189032.12,4341,16.31,73098.3,5.95,5.29,5.27,0,*48
1505189033.29,4342,16.31,73098.0,5.95,5.29,5.29,0,*45
1505189034.54,4343,16.31,73098.5,5.93,5.27,5.27,0,*42
1505189035.75,4344,16.38,73098.0,5.93,5.33,5.33,0,*45
1505189036.95,4345,16.38,73096.8,5.93,5.33,5.37,0,*40
1505189038.18,4346,16.38,73098.3,5.93,5.23,5.27,0,*43
1505189039.43,4347,16.38,73096.3,5.93,5.27,5.27,0,*46
1505189040.63,4348,16.38,73100.0,5.95,5.29,5.27,0,*41
1505189041.8,4349,16.38,73100.0,5.95,5.29,5.37,0,*41
1505189043.0,4350,16.38,73096.5,5.93,5.37,5.33,0,*44
1505189044.25,4351,16.38,73102.0,5.93,5.27,5.27,0,*41
1505189045.45,4352,16.38,73100.8,5.95,5.29,5.27,0,*4A
1505189046.7,4353,16.38,73102.3,5.93,5.27,5.27,0,*43
1505189047.91,4354,16.38,73100.5,5.93,5.23,5.23,0,*44
1505189049.14,4355,16.38,73102.3,5.95,5.27,5.27,0,*43
1505189050.37,4356,16.31,73098.3,5.93,5.23,5.27,0,*42
1505189051.6,4357,16.31,73098.5,5.93,5.33,5.27,0,*42
1505189052.8,4358,16.31,73098.5,5.93,5.37,5.33,0,*4C
1505189054.01,4359,16.38,73098.5,5.93,5.37,5.33,0,*4D
1505189055.18,4360,16.31,73096.0,5.95,5.37,5.29,0,*4A
1505189056.41,4361,16.31,73098.5,5.93,5.23,5.27,0,*46
1505189057.64,4362,16.31,73100.8,5.93,5.27,5.23,0,*45
1505189058.86,4363,16.31,73102.5,5.93,5.27,5.37,0,*41
1505189060.07,4364,16.31,73098.3,5.93,5.37,5.33,0,*43
1505189061.29,4365,16.38,73100.0,5.93,5.27,5.33,0,*43
1505189062.46,4366,16.38,73102.3,5.95,5.29,5.37,0,*4C
1505189063.67,4367,16.38,73104.8,5.93,5.23,5.33,0,*45
1505189064.84,4368,16.38,73100.3,5.95,5.29,5.29,0,*4D
1505189066.09,4369,16.38,73100.8,5.93,5.27,5.27,0,*4A
1505189067.32,4370,16.38,73100.3,5.93,5.27,5.23,0,*46
1505189068.54,4371,16.38,73104.3,5.95,5.27,5.27,0,*45
1505189069.79,4372,16.38,73100.8,5.93,5.27,5.27,0,*40
1505189071.02,4373,16.38,73100.0,5.93,5.23,5.27,0,*45
1505189072.27,4374,16.38,73102.0,5.93,5.27,5.27,0,*46
1505189073.47,4375,16.38,73100.8,5.95,5.29,5.27,0,*4F
1505189074.66,4376,16.31,73102.0,5.95,5.27,5.29,0,*4C
1505189075.86,4377,16.38,73106.0,5.95,5.29,5.27,0,*4D
1505189077.09,4378,16.38,73104.3,5.93,5.23,5.27,0,*4E
1505189078.26,4379,16.38,73100.5,5.95,5.29,5.29,0,*4D
1505189079.5,4380,16.31,73098.3,5.93,5.33,5.27,0,*48
1505189080.74,4381,16.31,73102.0,5.93,5.27,5.27,0,*4C
1505189081.97,4382,16.38,73106.3,5.93,5.27,5.33,0,*4A
1505189083.18,4383,16.38,73104.0,5.93,5.23,5.33,0,*4F
1505189084.35,4384,16.31,73098.5,5.95,5.37,5.29,0,*40
1505189085.53,4385,16.38,73100.5,5.95,5.37,5.29,0,*41
1505189086.7,4386,16.38,73102.5,5.95,5.29,5.29,0,*4D
1505189087.91,4387,16.31,73102.0,5.93,5.23,5.23,0,*4A
1505189089.16,4388,16.31,73100.5,5.93,5.27,5.27,0,*45
1505189090.39,4389,16.31,73100.0,5.93,5.27,5.23,0,*40
1505189091.62,4390,16.31,73098.5,5.93,5.23,5.27,0,*48
1505189092.87,4391,16.38,73100.5,5.93,5.27,5.27,0,*4D
1505189094.07,4392,16.38,73100.5,5.95,5.29,5.27,0,*46
1505189095.28,4393,16.38,73106.5,5.93,5.23,5.23,0,*4F
1505189096.51,4394,16.31,73102.5,5.93,5.23,5.27,0,*4C
1505189097.74,4395,16.38,73104.5,5.93,5.27,5.23,0,*4D
1505189098.97,4396,16.31,73100.3,5.95,5.27,5.27,0,*4C
1505189100.2,4397,16.38,73104.8,5.93,5.27,5.23,0,*4F
1505189101.43,4398,16.38,73104.5,5.93,5.23,5.27,0,*40
1505189102.64,4399,16.38,73106.5,5.93,5.23,5.19,0,*4C
1505189103.86,4400,16.38,73106.3,5.93,5.23,5.23,0,*42
1505189105.09,4401,16.31,73098.5,5.93,5.23,5.27,0,*47
1505189106.26,4402,16.31,73102.3,5.95,5.29,5.29,0,*46
1505189107.45,4403,16.31,73104.8,5.95,5.27,5.37,0,*46
1505189108.68,4404,16.31,73104.0,5.93,5.27,5.33,0,*43
1505189109.93,4405,16.31,73100.5,5.93,5.27,5.27,0,*47
1505189111.16,4406,16.38,73100.8,5.93,5.33,5.27,0,*41
1505189112.37,4407,16.38,73100.3,5.93,5.23,5.23,0,*45
1505189113.54,4408,16.31,73100.5,5.95,5.29,5.29,0,*4C
1505189114.76,4409,16.38,73102.8,5.93,5.23,5.23,0,*4B
1505189116.01,4410,16.31,73102.5,5.93,5.27,5.27,0,*43
1505189117.24,4411,16.31,73100.5,5.93,5.27,5.23,0,*46
1505189118.48,4412,16.38,73106.8,5.93,5.27,5.27,0,*41
1505189119.66,4413,16.38,73102.3,5.95,5.29,5.37,0,*49
1505189120.9,4414,16.38,73102.3,5.93,5.27,5.27,0,*47
1505189122.1,4415,16.38,73102.5,5.95,5.27,5.29,0,*4E
1505189123.32,4416,16.38,73104.5,5.95,5.27,5.27,0,*43
1505189124.54,4417,16.31,73100.3,5.93,5.23,5.23,0,*44
1505189125.75,4418,16.31,73094.3,5.93,5.23,5.23,0,*4B
1505189126.97,4419,16.38,73096.3,5.93,5.23,5.23,0,*4A
1505189128.18,4420,16.38,73096.5,5.93,5.23,5.19,0,*49
1505189129.39,4421,16.38,73102.3,5.93,5.19,5.19,0,*41
1505189130.58,4422,16.31,73098.8,5.95,5.23,5.23,0,*44
1505189131.8,4423,16.38,73106.3,5.93,5.19,5.19,0,*43
1505189133.01,4424,16.31,73096.8,5.93,5.19,5.19,0,*44
1505189134.23,4425,16.31,73094.8,5.93,5.19,5.19,0,*45
1505189135.45,4426,16.31,73094.5,5.93,5.19,5.19,0,*46
1505189136.66,4427,16.38,73096.8,5.93,5.19,5.11,0,*4F
1505189137.87,4428,16.31,73092.3,5.93,5.19,5.19,0,*48
1505189139.06,4429,16.38,73094.5,5.91,5.19,5.19,0,*4B
1505189140.26,4430,16.31,73088.8,5.91,5.19,5.23,0,*4A
1505189141.46,4431,16.38,73092.0,5.95,5.23,5.27,0,*42
1505189142.68,4432,16.31,73088.5,5.93,5.19,5.23,0,*4A
1505189143.9,4433,16.38,73092.5,5.93,5.19,5.23,0,*4B
1505189145.13,4434,16.38,73092.5,5.93,5.27,5.23,0,*41
1505189146.38,4435,16.38,73094.8,5.93,5.27,5.27,0,*44
1505189147.61,4436,16.31,73092.8,5.93,5.23,5.27,0,*43
1505189148.85,4437,16.31,73092.0,5.93,5.27,5.27,0,*46
1505189150.1,4438,16.38,73094.3,5.93,5.27,5.27,0,*49
1505189151.32,4439,16.31,73088.0,5.95,5.27,5.27,0,*4E
1505189152.56,4440,16.38,73090.3,5.93,5.33,5.27,0,*43
1505189153.74,4441,16.38,73088.5,5.91,5.23,5.23,0,*45
1505189154.96,4442,16.38,73094.0,5.93,5.23,5.23,0,*44
1505189156.18,4443,16.38,73094.5,5.91,5.27,5.27,0,*47
1505189157.39,4444,16.38,73096.5,5.91,5.27,5.23,0,*44
1505189158.58,4445,16.31,73094.3,5.91,5.27,5.33,0,*44
1505189159.79,4446,16.31,73092.5,5.91,5.23,5.27,0,*46
1505189161.0,4447,16.31,73092.8,5.93,5.23,5.23,0,*41
1505189162.22,4448,16.38,73092.5,5.93,5.23,5.23,0,*4E
1505189163.43,4449,16.38,73090.8,5.93,5.19,5.19,0,*4F
1505189164.65,4450,16.31,73092.8,5.93,5.19,5.19,0,*47
1505189165.87,4451,16.31,73088.8,5.93,5.19,5.23,0,*4F
1505189167.1,4452,16.31,73086.8,5.93,5.23,5.27,0,*41
1505189168.31,4453,16.38,73086.0,5.93,5.23,5.23,0,*44
1505189169.53,4454,16.31,73084.0,5.93,5.23,5.23,0,*43
1505189170.74,4455,16.31,73090.5,5.93,5.23,5.23,0,*42
1505189171.96,4456,16.38,73092.5,5.93,5.23,5.23,0,*41
1505189173.17,4457,16.31,73092.8,5.93,5.23,5.23,0,*40
1505189174.39,4458,16.38,73096.8,5.93,5.19,5.23,0,*46
1505189175.61,4459,16.31,73088.8,5.93,5.19,5.19,0,*4E
1505189176.82,4460,16.31,73092.3,5.93,5.19,5.23,0,*4D
1505189178.03,4461,16.38,73096.8,5.93,5.23,5.19,0,*4C
1505189179.28,4462,16.31,73094.0,5.93,5.27,5.27,0,*46
1505189180.47,4463,16.31,73090.8,5.91,5.23,5.23,0,*45
1505189181.68,4464,16.31,73086.5,5.91,5.27,5.23,0,*46
1505189182.89,4465,16.38,73086.5,5.89,5.19,5.19,0,*4A
1505189184.07,4466,16.31,73088.8,5.91,5.23,5.23,0,*40
1505189185.26,4467,16.31,73096.0,5.91,5.23,5.23,0,*41
1505189186.45,4468,16.31,73092.3,5.91,5.23,5.23,0,*4E
1505189187.66,4469,16.31,73094.3,5.89,5.19,5.19,0,*46
1505189188.91,4470,16.31,73094.8,5.93,5.27,5.27,0,*45
1505189190.1,4471,16.38,73098.0,5.91,5.23,5.23,0,*46
1505189191.28,4472,16.31,73094.0,5.91,5.23,5.23,0,*45
1505189192.47,4473,16.31,73098.3,5.91,5.23,5.23,0,*44
1505189193.68,4474,16.31,73094.5,5.91,5.33,5.27,0,*46
1505189194.9,4475,16.38,73094.0,5.91,5.27,5.27,0,*42
1505189196.1,4476,16.38,73096.8,5.91,5.23,5.27,0,*45
1505189197.33,4477,16.38,73094.0,5.93,5.27,5.23,0,*46
1505189198.54,4478,16.38,73092.0,5.91,5.23,5.27,0,*4B
1505189199.74,4479,16.31,73092.3,5.91,5.27,5.23,0,*4A
1505189200.95,4480,16.31,73094.5,5.91,5.23,5.27,0,*4C
1505189202.17,4481,16.31,73098.5,5.91,5.27,5.27,0,*49
1505189203.38,4482,16.31,73094.3,5.91,5.27,5.23,0,*4E
1505189204.6,4483,16.31,73094.5,5.91,5.27,5.27,0,*4B
1505189205.79,4484,16.31,73098.0,5.91,5.19,5.19,0,*4C
1505189206.98,4485,16.31,73094.8,5.91,5.19,5.19,0,*4D
1505189208.16,4486,16.38,73096.5,5.91,5.19,5.19,0,*4E
1505189209.35,4487,16.38,73098.3,5.91,5.19,5.19,0,*4F
1505189210.54,4488,16.31,73096.8,5.91,5.19,5.19,0,*40
1505189211.73,4489,16.31,73096.5,5.91,5.19,5.23,0,*48
1505189212.95,4490,16.38,73096.5,5.93,5.23,5.23,0,*4B
1505189214.14,4491,16.38,73096.5,5.91,5.23,5.23,0,*48
1505189215.36,4492,16.31,73094.8,5.91,5.27,5.27,0,*4B
1505189216.58,4493,16.38,73098.0,5.91,5.27,5.27,0,*4A
1505189217.77,4494,16.38,73100.5,5.91,5.23,5.23,0,*4D
1505189218.96,4495,16.31,73098.5,5.91,5.19,5.19,0,*4C
1505189220.15,4496,16.38,73100.3,5.91,5.19,5.19,0,*4F
1505189221.35,4497,16.31,73098.5,5.89,5.15,5.15,0,*47
1505189222.53,4498,16.31,73092.8,5.91,5.19,5.19,0,*41
1505189223.73,4499,16.31,73092.0,5.89,5.15,5.15,0,*49
1505189224.92,4500,16.31,73094.3,5.91,5.19,5.11,0,*49
1505189226.12,4501,16.38,73098.3,5.89,5.07,5.15,0,*4A
1505189227.31,4502,16.31,73096.0,5.91,5.19,5.19,0,*43
1505189228.51,4503,16.31,73098.8,5.89,5.15,5.15,0,*4B
1505189229.7,4504,16.31,73094.8,5.91,5.19,5.19,0,*45
1505189230.9,4505,16.31,73094.0,5.89,5.15,5.19,0,*41
1505189232.09,4506,16.38,73094.8,5.91,5.19,5.19,0,*47
1505189233.29,4507,16.31,73090.5,5.89,5.15,5.15,0,*4F
1505189234.49,4508,16.31,73094.0,5.89,5.15,5.11,0,*44
1505189235.69,4509,16.31,73094.3,5.89,5.15,5.15,0,*41
1505189236.88,4510,16.31,73092.3,5.91,5.19,5.19,0,*40
1505189238.09,4511,16.31,73090.0,5.91,5.23,5.27,0,*45
1505189239.29,4512,16.31,73090.3,5.89,5.23,5.19,0,*42
1505189240.48,4513,16.38,73092.3,5.91,5.19,5.23,0,*4A
1505189241.69,4514,16.38,73090.0,5.89,5.07,5.19,0,*42
1505189242.94,4515,16.38,73084.5,5.89,5.05,5.05,0,*4C
1505189244.15,4516,16.38,73084.5,5.89,5.07,5.07,0,*4F
1505189245.34,4517,16.31,73088.0,5.91,5.19,5.19,0,*47
1505189246.53,4518,16.38,73098.8,5.89,5.15,5.15,0,*41
1505189247.73,4519,16.31,73098.5,5.89,5.07,5.15,0,*43
1505189248.94,4520,16.31,73102.3,5.89,5.19,5.15,0,*46
1505189250.15,4521,16.38,73104.8,5.89,5.19,5.15,0,*47
1505189251.35,4522,16.31,73102.3,5.89,5.19,5.19,0,*48
1505189252.57,4523,16.31,73098.3,5.89,5.19,5.19,0,*49
1505189253.78,4524,16.38,73100.3,5.89,5.19,5.19,0,*4E
1505189254.98,4525,16.31,73102.5,5.89,5.19,5.19,0,*4F
1505189256.17,4526,16.38,73104.5,5.91,5.23,5.23,0,*45
1505189257.36,4527,16.31,73102.8,5.91,5.23,5.23,0,*44
1505189258.55,4528,16.38,73100.0,5.91,5.23,5.19,0,*42
1505189259.75,4529,16.31,73096.5,5.89,5.19,5.15,0,*4F
1505189260.96,4530,16.31,73094.3,5.89,5.19,5.19,0,*4B
1505189262.17,4531,16.38,73094.3,5.89,5.19,5.23,0,*43
1505189263.36,4532,16.31,73096.3,5.91,5.19,5.19,0,*40
1505189264.57,4533,16.31,73096.8,5.89,5.19,5.19,0,*48
1505189265.76,4534,16.31,73100.5,5.91,5.23,5.23,0,*46
1505189266.97,4535,16.31,73096.8,5.89,5.19,5.19,0,*4E
1505189268.18,4536,16.31,73096.8,5.89,5.19,5.19,0,*4D
1505189269.39,4537,16.31,73098.0,5.89,5.19,5.19,0,*4C
1505189270.6,4538,16.31,73096.3,5.89,5.19,5.23,0,*4A
1505189271.81,4539,16.31,73098.3,5.89,5.19,5.19,0,*42
1505189273.02,4540,16.31,73098.5,5.89,5.19,5.19,0,*4C
1505189274.23,4541,16.38,73104.3,5.89,5.23,5.23,0,*4D
1505189275.44,4542,16.31,73096.8,5.89,5.19,5.23,0,*47
1505189276.66,4543,16.31,73098.3,5.89,5.19,5.23,0,*46
1505189277.86,4544,16.31,73100.8,5.89,5.19,5.19,0,*48
1505189279.05,4545,16.31,73100.0,5.91,5.23,5.23,0,*40
1505189280.26,4546,16.31,73096.0,5.89,5.19,5.19,0,*4A
1505189281.47,4547,16.31,73094.0,5.89,5.19,5.19,0,*4B
1505189282.69,4548,16.31,73092.3,5.91,5.27,5.27,0,*4D
1505189283.91,4549,16.31,73102.0,5.89,5.19,5.23,0,*4C
1505189285.11,4550,16.31,73104.8,5.89,5.23,5.19,0,*44
1505189286.3,4551,16.31,73102.0,5.91,5.23,5.23,0,*45
1505189287.51,4552,16.31,73098.0,5.89,5.19,5.19,0,*4F
1505189288.72,4553,16.31,73102.0,5.89,5.19,5.23,0,*47
1505189289.93,4554,16.31,73094.8,5.89,5.19,5.19,0,*49
1505189291.14,4555,16.31,73094.3,5.89,5.23,5.23,0,*48
1505189292.34,4556,16.31,73094.8,5.89,5.15,5.15,0,*4B
1505189293.54,4557,16.31,73092.5,5.89,5.07,5.15,0,*49
1505189294.76,4558,16.31,73098.5,5.85,5.11,5.05,0,*4C
1505189295.97,4559,16.31,73100.3,5.85,5.11,5.05,0,*4D
1505189297.19,4560,16.31,73102.5,5.85,5.05,5.11,0,*47
1505189298.39,4561,16.38,73102.3,5.85,5.11,5.15,0,*47
1505189299.58,4562,16.31,73098.8,5.85,5.15,5.15,0,*40
1505189300.76,4563,16.31,73100.0,5.85,5.15,5.15,0,*41
1505189301.98,4564,16.31,73096.8,5.89,5.19,5.19,0,*4A
1505189303.18,4565,16.38,73100.0,5.89,5.19,5.19,0,*4B
1505189304.4,4566,16.38,73100.8,5.89,5.19,5.23,0,*41
1505189305.61,4567,16.31,73098.0,5.89,5.19,5.19,0,*49
1505189306.82,4568,16.31,73102.8,5.89,5.19,5.19,0,*46
1505189308.03,4569,16.31,73098.0,5.89,5.19,5.19,0,*47
1505189309.24,4570,16.31,73100.5,5.89,5.19,5.23,0,*46
1505189310.45,4571,16.31,73102.3,5.89,5.19,5.19,0,*4E
1505189311.66,4572,16.31,73102.3,5.89,5.23,5.23,0,*4D
1505189312.85,4573,16.38,73106.8,5.85,5.19,5.15,0,*4C
1505189314.05,4574,16.38,73106.0,5.85,5.19,5.15,0,*4B
1505189315.24,4575,16.38,73102.0,5.85,5.15,5.15,0,*46
1505189316.45,4576,16.31,73088.0,5.89,5.19,5.19,0,*49
1505189317.66,4577,16.31,73090.8,5.89,5.19,5.19,0,*48
1505189318.86,4578,16.31,73094.5,5.89,5.19,5.19,0,*47
1505189320.07,4579,16.31,73094.0,5.89,5.19,5.15,0,*4A
1505189321.28,4580,16.38,73096.3,5.89,5.23,5.19,0,*49
1505189322.46,4581,16.31,73096.3,5.91,5.23,5.19,0,*41
1505189323.67,4582,16.31,73096.5,5.89,5.19,5.23,0,*4B
1505189324.89,4583,16.31,73094.8,5.89,5.19,5.23,0,*4A
1505189326.1,4584,16.31,73088.3,5.89,5.19,5.19,0,*44
1505189327.29,4585,16.31,73092.3,5.85,5.19,5.15,0,*45
1505189328.48,4586,16.38,73092.5,5.85,5.15,5.15,0,*4A
1505189329.69,4587,16.31,73090.8,5.89,5.23,5.23,0,*47
1505189330.9,4588,16.31,73092.0,5.89,5.19,5.19,0,*48
1505189332.1,4589,16.31,73094.8,5.89,5.15,5.15,0,*49
1505189333.3,4590,16.31,73088.3,5.89,5.15,5.15,0,*41
1505189334.5,4591,16.31,73092.0,5.89,5.15,5.15,0,*40
1505189335.7,4592,16.31,73084.3,5.89,5.15,5.15,0,*43
1505189336.91,4593,16.38,73088.8,5.89,5.23,5.23,0,*42
1505189338.12,4594,16.31,73084.0,5.89,5.19,5.23,0,*4C
1505189339.33,4595,16.31,73088.8,5.89,5.19,5.19,0,*44